Flag for France Weather past 2 weeks in Grenoble, France

Now
61 °F

Passing clouds.


Feels Like: 61 °F
Forecast: 58 / 87 °F
Wind: No wind

Location: Grenoble / St. Geoirs

Current Time: Jul 24, 2014 at 7:22:19 AM

Latest Report: Jul 24, 2014 at 7:00 AM


Visibility: N/A

Pressure: 29.89 "Hg

Humidity: 100%

Dew point: 61 °F

Location of GrenobleLocation

Historic Weather in Grenoble — Graph

°F

Grenoble temperature yesterday

Maximum temperature yesterday: 77 °F (at 3:30 PM)
Minimum temperature yesterday: 64 °F (at 1:00 AM)
Average temperature yesterday: 70 °F

Past Weeks' High & Low Weather Summary

 TemperatureHumidityPressure
High90 °F (Jul 17, 4:30 PM)100% (Jul 10, 1:30 PM)30.18 "Hg (Jul 10, 1:30 PM)
Low50 °F (Jul 15, 6:00 AM)35% (Jul 18, 2:30 PM)29.86 "Hg (Jul 19, 7:00 PM)
Average65 °F78%30.03 "Hg
* Reported Jul 9 6:00 AM — Jul 24 6:00 AM, Grenoble, Weather by CustomWeather, © 2014

Note: Actual official high and low records may vary slightly from our data, if they occured in-between our weather recording intervals... More about our weather records

Advertising

Grenoble weather history for previous 24 hours

 ConditionsComfort  
Time TempWeatherWind HumidityBarometerVisibility
6:00 AM
Jul 24
63 °FFog.No wind94%29.89 "Hg2 mi
5:30 AM63 °FPassing clouds.No wind94%29.89 "HgN/A
5:00 AM61 °FPartly cloudy.No wind94%29.86 "HgN/A
4:30 AM63 °FPassing clouds.No wind94%29.86 "HgN/A
4:00 AM63 °FMostly cloudy.No wind94%29.89 "HgN/A
3:30 AM63 °FMild.No wind94%29.89 "HgN/A
2:30 AM64 °FPassing clouds.No wind94%29.89 "HgN/A
2:00 AM66 °FPartly cloudy.No wind88%29.89 "HgN/A
1:30 AM66 °FPartly cloudy.No wind88%29.89 "HgN/A
1:00 AM66 °FPassing clouds.No wind94%29.89 "HgN/A
12:30 AM68 °FOvercast.No wind88%29.89 "HgN/A
12:00 AM68 °FMostly cloudy.No wind88%29.89 "HgN/A
11:30 PM
Jul 23
68 °FMostly cloudy.2 mph88%29.89 "HgN/A
11:00 PM68 °FPassing clouds.No wind88%29.89 "HgN/A
10:30 PM70 °FClear.No wind83%29.92 "HgN/A
10:00 PM70 °FOvercast.1 mph83%29.89 "HgN/A
9:30 PM72 °FFog.No wind78%29.89 "Hg1 mi
9:00 PM72 °FClear.1 mph78%29.89 "HgN/A
8:30 PM73 °FClear.No wind69%29.89 "HgN/A
8:00 PM75 °FClear.2 mph65%29.89 "HgN/A
7:30 PM77 °FCloudy.6 mph65%29.89 "HgN/A
7:00 PM77 °FMore clouds than sun.6 mph65%29.89 "HgN/A
6:30 PM77 °FBroken clouds.No wind61%29.89 "HgN/A
6:00 PM75 °FMostly cloudy.3 mph65%29.89 "HgN/A
5:30 PM75 °FMostly cloudy.3 mph65%29.89 "HgN/A
5:00 PM77 °FMore clouds than sun.3 mph57%29.89 "HgN/A
4:30 PM77 °FMore clouds than sun.7 mph57%29.89 "HgN/A
4:00 PM77 °FMostly cloudy.7 mph57%29.89 "HgN/A
3:30 PM77 °FMostly cloudy.6 mph57%29.89 "HgN/A
3:00 PM75 °FPartly sunny.6 mph61%29.92 "HgN/A
2:00 PM75 °FPartly sunny.6 mph65%29.92 "HgN/A
1:30 PM73 °FOvercast.1 mph65%29.92 "HgN/A
1:00 PM75 °FScattered clouds.6 mph65%29.92 "HgN/A
12:00 PM72 °FPartly sunny.5 mph73%29.92 "HgN/A
11:30 AM72 °FPartly sunny.2 mph73%29.92 "HgN/A
11:00 AM70 °FMore clouds than sun.No wind78%29.92 "HgN/A
10:30 AM70 °FPartly sunny.No wind78%29.92 "HgN/A
10:00 AM68 °FMore clouds than sun.No wind83%29.92 "HgN/A
8:00 AM64 °FLight rain. Low clouds.No wind94%29.95 "Hg4 mi
7:30 AM64 °FLow clouds.2 mph94%29.95 "Hg4 mi
7:00 AM64 °FLow clouds.No wind94%29.95 "Hg4 mi
Weather by CustomWeather, © 2014

See weather overviewHow to use our weather pages